Hourly Data Report for September 19, 2017

All times are specified in Local Standard Time (LST). Add 1 hour to adjust for Daylight Saving Time where and when it is observed.

GRAND MANAN SAR CS
NEW BRUNSWICK

44°42'43.400" N
66°48'06.900" W
78.20 m
8101925
71030
XGM

Download Data

Hourly Data (September 2017)
Hourly Data Report for September 19, 2017
Temp Definition
°C
Dew Point Temp Definition
°C
Rel Hum Definition
%
Wind Dir Definition
10's deg

Wind Spd Definition
km/h
Visibility Definition
km
Stn Press Definition
kPa
Hmdx Definition


Wind Chill Definition


Weather Definition


TIME
00:00 14.6 14.5 99 8 6   101.53     LegendNANA
01:00 14.6 14.5 99 6 5   101.46     LegendNANA
02:00 14.6 14.5 99 5 5   101.43     LegendNANA
03:00 15.0 14.9 99 6 9   101.40     LegendNANA
04:00 15.2 15.1 99 7 7   101.41     LegendNANA
05:00 15.1 15.0 99 6 9   101.41     LegendNANA
06:00 15.3 15.2 99 5 7   101.40     LegendNANA
07:00 15.6 15.5 99 8 9   101.42     LegendNANA
08:00 16.2 16.1 99 8 7   101.42     LegendNANA
09:00 16.0 15.9 99 5 10   101.43     LegendNANA
10:00 16.3 16.1 99 7 13   101.44     LegendNANA
11:00 16.3 15.7 96 7 14   101.42     LegendNANA
12:00 16.7 15.5 93 6 13   101.40     LegendNANA
13:00 16.4 15.2 93 7 12   101.33     LegendNANA
14:00 16.4 15.7 96 7 14   101.26     LegendNANA
15:00 16.5 15.3 93 6 13   101.21     LegendNANA
16:00 16.2 15.4 95 7 12   101.18     LegendNANA
17:00 16.2 15.7 97 6 14   101.13     LegendNANA
18:00 16.0 15.6 98 6 12   101.12     LegendNANA
19:00 15.7 15.4 98 6 12   101.13     LegendNANA
20:00 16.3 16.1 99 6 15   101.12     LegendNANA
21:00 16.4 16.2 99 6 12   101.10     LegendNANA
22:00 16.5 16.3 99 6 8   101.10     LegendNANA
23:00 16.8 16.6 99 7 8   101.05     LegendNANA

Notes on Data Quality.

Legend

  • E = Estimated
  • M = Missing
  • NA = Not Available
  • ‡ = Partner data that is not subject to review by the National Climate Archives
Date modified: